Back to catalog

STARLINK-31584

AliveCommunicationsVLEO
NORAD 59862·PAYLOAD·🇺🇸 United States

Launched May 24, 2024 from Cape Canaveral Space Force Station

Loading…

Next Passes (next 24 hours)

TLE

FreshSource: CelesTrak SupGP

Epoch: Sep 14, 2026, 22:15 UTC

1 59862C 24098E   26257.92756944  .00014266  00000+0  51676-3 0  2574
2 59862  43.0020 289.1418 0001638 268.5737 295.8218 15.27567417    11

Track STARLINK-31584 in real time with AllMySat

Download on the App Store